Home > Weather > Madrid > Past weeks

Flag for Spain Past Weather in Madrid, Spain — Yesterday and Last 2 Weeks

Now
82 °F

Sunny.


Feels Like: 81 °F
Forecast: 61 / 93 °F
Wind: 12 mph from Southwest

Location: Madrid / Cuatro Vientos

Current Time: Jul 1, 2016 at 1:10:47 AM

Latest Report: Jun 30, 2016 at 10:00 PM


Visibility: 10 mi

Pressure: 30.01 "Hg (27.85 "Hg at 658m altitude)

Humidity: 26%

Dew Point: 45 °F

Location of MadridLocation

Past Weather in Madrid — Graph

°F

Madrid Temperature Yesterday

Maximum temperature yesterday: 93 °F (at 4:30 PM)
Minimum temperature yesterday: 66 °F (at 7:00 AM)
Average temperature yesterday: 86 °F

High & Low Weather Summary for the Past Weeks

 TemperatureHumidityPressure
High99 °F (Jun 28, 5:30 PM)82% (Jun 15, 10:00 PM)30.39 "Hg (Jun 15, 10:00 PM)
Low48 °F (Jun 17, 7:00 AM)10% (Jun 22, 2:00 PM)29.74 "Hg (Jun 15, 10:00 PM)
Average80 °F30%30.09 "Hg
* Reported Jun 15 10:00 PM — Jun 30 10:00 PM, Madrid, Weather by CustomWeather, © 2016

Note: Actual official high and low records may vary slightly from our data, if they occured in-between our weather recording intervals... More about our weather records

Advertising

Madrid Weather History for the Previous 24 Hours

Scroll right to see more
 ConditionsComfort  
Time TempWeatherWind HumidityBarometerVisibility
10:00 PM
Thu, Jun 30
82 °FSunny.12 mph26%30.01 "Hg10 mi
9:30 PM86 °FPassing clouds.10 mph22%30.01 "HgN/A
9:00 PM88 °FPassing clouds.10 mph21%30.01 "HgN/A
8:30 PM88 °FPassing clouds.10 mph21%30.01 "HgN/A
8:00 PM90 °FPassing clouds.7 mph20%29.98 "HgN/A
7:30 PM90 °FPassing clouds.10 mph17%29.98 "HgN/A
7:00 PM91 °FPassing clouds.12 mph16%29.98 "HgN/A
6:30 PM91 °FPassing clouds.10 mph15%29.98 "HgN/A
6:00 PM93 °FPassing clouds.9 mph14%30.01 "HgN/A
5:30 PM93 °FPassing clouds.12 mph14%30.01 "HgN/A
5:00 PM93 °FPassing clouds.12 mph12%30.01 "HgN/A
4:30 PM93 °FPassing clouds.10 mph14%30.01 "HgN/A
4:00 PM91 °FPassing clouds.10 mph16%30.01 "HgN/A
3:30 PM91 °FPassing clouds.9 mph16%30.04 "HgN/A
3:00 PM91 °FPassing clouds.9 mph15%30.04 "HgN/A
2:30 PM90 °FPassing clouds.8 mph16%30.04 "HgN/A
2:00 PM90 °FSunny.7 mph20%30.04 "Hg10 mi
1:30 PM88 °FPassing clouds.8 mph22%30.04 "HgN/A
1:00 PM84 °FPassing clouds.6 mph25%30.04 "HgN/A
12:30 PM88 °FPassing clouds.6 mph22%30.04 "HgN/A
12:00 PM88 °FPassing clouds.7 mph22%30.04 "HgN/A
11:30 AM84 °FSunny.3 mph29%30.04 "Hg10 mi
11:00 AM84 °FSunny.1 mph29%30.04 "Hg10 mi
10:30 AM84 °FSunny.1 mph33%30.04 "Hg10 mi
10:00 AM81 °FSunny.No wind37%30.04 "Hg10 mi
9:30 AM79 °FSunny.1 mph42%30.04 "Hg10 mi
9:00 AM77 °FSunny.No wind44%30.04 "Hg10 mi
8:30 AM75 °FSunny.No wind47%30.04 "Hg10 mi
8:00 AM72 °FSunny.2 mph50%30.01 "Hg10 mi
7:30 AM70 °FPassing clouds.3 mph53%30.01 "HgN/A
7:00 AM66 °FClear.1 mph56%30.01 "Hg10 mi
Weather by CustomWeather, © 2016

See weather overviewHow to use our weather pages